FW6707 Weather Reports


time (UTC)temp
F
wind
direction
speed
knots
gust
knots
rain 1hr
in
rain 24hr
in
rain mn
in
humidity
%
barometer
mb
20260506110021 64 242 8.7 18.2 0.00 0.00 0.00 70 1014.4
20260506104514 64 250 9.6 21.7 0.00 0.00 0.00 70 1014.3
20260506103011 63 247 8.7 17.4 0.00 0.00 0.00 72 1014.3
20260506101507 61 246 9.6 19.1 0.00 0.00 0.00 74 1014.4
20260506100007 60 226 8.7 20.9 0.00 0.00 0.00 76 1014.3
20260506094503 59 246 8.7 19.1 0.00 0.00 0.00 77 1014.1
20260506093002 59 267 12.2 21.7 0.00 0.00 0.00 78 1014.0
20260506091559 58 281 10.4 19.1 0.00 0.00 0.00 78 1014.0
20260506090058 57 284 7.0 21.7 0.00 0.00 0.00 80 1013.5
20260506084603 56 261 9.6 17.4 0.00 0.00 0.00 80 1013.3
20260506083056 56 236 10.4 16.5 0.00 0.00 0.00 81 1013.3
20260506081554 56 275 7.8 16.5 0.00 0.00 0.00 81 1013.4
20260506073051 56 280 5.2 15.6 0.00 0.00 0.00 80 1013.5
20260506071556 57 257 7.0 12.2 0.00 0.00 0.00 80 1013.5
20260506061545 56 240 7.0 13.0 0.00 0.00 0.00 78 1013.6
20260506044543 55 268 6.1 11.3 0.00 0.00 0.00 79 1013.8
20260506043034 56 270 7.8 16.5 0.00 0.00 0.00 78 1013.7
20260506041531 57 291 7.0 14.8 0.00 0.00 0.00 77 1013.5
20260506040029 57 251 10.4 20.9 0.00 0.00 0.00 76 1013.3
20260506034526 58 240 13.0 24.3 0.00 0.00 0.00 74 1013.1
20260506033031 59 260 9.6 19.1 0.00 0.00 0.00 72 1013.1
20260506031529 60 240 10.4 25.2 0.00 0.00 0.00 70 1012.9
20260506030038 60 302 9.6 18.2 0.00 0.00 0.00 71 1012.7
20260506024524 59 283 9.6 17.4 0.00 0.00 0.00 72 1012.6
20260506023014 58 272 9.6 20.9 0.00 0.00 0.00 72 1013.0
20260506021513 58 246 7.0 21.7 0.00 0.00 0.00 73 1012.9
20260506020012 58 242 7.8 14.8 0.00 0.00 0.00 72 1012.9
20260506014511 58 243 7.0 15.6 0.00 0.00 0.00 71 1012.9
20260506013011 59 298 9.6 21.7 0.00 0.00 0.00 70 1012.9
20260506011511 59 240 4.3 16.5 0.00 0.00 0.00 69 1012.7
20260506010009 59 257 7.0 13.0 0.00 0.00 0.00 67 1012.6
20260506004519 59 262 11.3 20.0 0.00 0.00 0.00 65 1012.5
20260506003006 60 242 8.7 16.5 0.00 0.00 0.00 64 1012.3
20260506001506 61 309 9.6 21.7 0.00 0.00 0.00 61 1012.2
20260506000006 61 297 8.7 21.7 0.00 0.00 0.00 59 1011.8
20260505234602 62 246 8.7 20.0 0.00 0.00 0.00 57 1011.3
20260505233127 63 250 8.7 17.4 0.00 0.00 0.00 55 1011.2
20260505231558 64 259 9.6 16.5 0.00 0.00 0.00 53 1010.9
20260505230057 65 251 7.8 19.1 0.00 0.00 0.00 51 1010.6
20260505224558 66 259 5.2 16.5 0.00 0.00 0.00 50 1010.6
20260505223055 67 200 4.3 15.6 0.00 0.00 0.00 49 1010.9
20260505221601 68 235 7.0 14.8 0.00 0.00 0.00 48 1010.8
20260505220054 68 282 5.2 12.2 0.00 0.00 0.00 48 1010.6
20260505214553 70 186 3.5 13.9 0.00 0.00 0.00 46 1010.4
20260505213054 71 244 3.5 14.8 0.00 0.00 0.00 45 1010.3
20260505211651 71 235 7.0 13.0 0.00 0.00 0.00 44 1010.3
20260505210049 73 219 2.6 13.0 0.00 0.00 0.00 44 1010.4
20260505204548 73 311 4.3 13.0 0.00 0.00 0.00 43 1010.3
20260505203051 74 190 6.1 13.9 0.00 0.00 0.00 42 1010.1
20260505201548 74 174 7.8 17.4 0.00 0.00 0.00 42 1009.8
20260505200043 75 221 4.3 14.8 0.00 0.00 0.00 43 1009.8
20260505194548 76 215 7.0 19.1 0.00 0.00 0.00 41 1009.7
20260505193140 77 190 8.7 17.4 0.00 0.00 0.00 40 1009.4
20260505191639 78 250 4.3 13.0 0.00 0.00 0.00 33 1009.3
20260505190040 77 243 6.1 19.1 0.00 0.00 0.00 32 1009.3
20260505184533 77 219 7.8 19.1 0.00 0.00 0.00 34 1009.3
20260505183031 77 252 4.3 11.3 0.00 0.00 0.00 35 1009.3
20260505181532 76 244 7.8 21.7 0.00 0.00 0.00 36 1009.5
20260505180036 76 240 9.6 19.1 0.00 0.00 0.00 35 1009.4
20260505174525 75 241 6.1 17.4 0.00 0.00 0.00 40 1009.6
20260505173023 74 233 9.6 19.1 0.00 0.00 0.00 40 1009.7
20260505171521 74 213 7.0 19.1 0.00 0.00 0.00 40 1009.7
20260505170019 74 182 5.2 21.7 0.00 0.01 0.00 42 1009.8
20260505164517 73 307 6.1 15.6 0.00 0.01 0.00 44 1009.8
20260505163014 72 217 2.6 20.0 0.00 0.01 0.00 46 1009.7
20260505161510 71 190 7.0 16.5 0.00 0.01 0.00 48 1009.7
20260505153002 68 232 5.2 12.2 0.00 0.16 0.00 51 1010.0
20260505151603 67 211 7.0 17.4 0.00 0.16 0.00 53 1009.9
20260505124530 57 259 3.5 11.3 0.00 0.35 0.00 63 1010.6
20260505123026 56 203 5.2 12.2 0.00 0.35 0.00 65 1010.4
20260505121524 56 254 4.3 10.4 0.00 0.35 0.00 66 1010.3
20260505120034 55 159 1.7 9.6 0.00 0.35 0.00 69 1009.9
20260505114516 54 260 2.6 9.6 0.00 0.35 0.00 72 1010.0
20260505113014 53 211 3.5 8.7 0.00 0.35 0.00 75 1009.9
20260505111522 51 238 5.2 8.7 0.00 0.35 0.00 77 1010.0